GW0092 Weather Reports


time (UTC)temp
C
wind
direction
speed
KPH
gust
KPH
rain 1hr
cm
rain 24hr
cm
rain mn
cm
humidity
%
barometer
mb
20260510133055 20 330 1.6 6.4 0.00 0.41 0.00 78 1013.9
20260510131556 19 20 0.0 6.4 0.00 0.41 0.00 84 1013.8
20260510130054 17 287 1.6 4.8 0.00 0.41 0.00 96 1013.6
20260510124606 16 330 0.0 4.8 0.00 0.41 0.00 99 1013.6
20260510123054 16 0 0.0 4.8 0.00 0.41 0.00 100 1013.4
20260510121551 15 0 0.0 1.6 0.00 0.41 0.00 100 1013.4
20260510120051 15 327 0.0 0.0 0.00 0.41 0.00 100 1013.3
20260510114551 13 0 0.0 0.0 0.00 0.41 0.00 99 1013.1
20260510113053 13 0 0.0 0.0 0.00 0.41 0.00 99 1013.0
20260510111551 12 0 0.0 0.0 0.00 0.41 0.00 99 1012.7
20260510110050 12 0 0.0 0.0 0.00 0.41 0.00 99 1012.5
20260510104559 11 0 0.0 0.0 0.00 0.41 0.00 99 1012.2
20260510103051 11 0 0.0 0.0 0.00 0.41 0.00 99 1012.2
20260510101552 11 0 0.0 0.0 0.00 0.41 0.00 99 1012.0
20260510100056 11 0 0.0 0.0 0.00 0.41 0.00 98 1011.6
20260510094602 12 0 0.0 0.0 0.00 0.41 0.00 99 1011.6
20260510093117 12 0 0.0 0.0 0.00 0.41 0.00 99 1011.4
20260510091550 12 0 0.0 0.0 0.00 0.41 0.00 99 1011.4
20260510090055 12 0 0.0 0.0 0.00 0.41 0.00 99 1011.3
20260510084601 12 0 0.0 0.0 0.00 0.41 0.00 99 1011.1
20260510083059 12 0 0.0 0.0 0.00 0.41 0.00 99 1011.0
20260510081600 11 0 0.0 0.0 0.00 0.41 0.00 98 1011.0
20260510080054 12 0 0.0 0.0 0.00 0.41 0.00 98 1011.0
20260510074555 12 0 0.0 0.0 0.00 0.41 0.00 98 1011.0
20260510073052 12 0 0.0 0.0 0.00 0.41 0.00 99 1010.9
20260510071555 12 0 0.0 0.0 0.00 0.41 0.00 99 1011.0
20260510070054 12 0 0.0 0.0 0.00 0.41 0.00 98 1011.1
20260510064553 12 0 0.0 0.0 0.00 0.41 0.00 98 1011.1
20260510063057 12 0 0.0 0.0 0.00 0.41 0.00 98 1011.1
20260510061555 12 0 0.0 0.0 0.00 0.41 0.00 98 1011.1
20260510060100 12 0 0.0 0.0 0.00 0.41 0.00 98 1011.1
20260510054559 12 0 0.0 0.0 0.00 0.41 0.00 98 1011.1
20260510053101 12 0 0.0 0.0 0.00 0.41 0.00 98 1011.3
20260510051557 13 0 0.0 0.0 0.00 0.41 0.00 98 1011.3
20260510050056 12 0 0.0 0.0 0.00 0.41 0.00 98 1011.3
20260510044557 13 0 0.0 0.0 0.00 0.41 0.00 98 1011.3
20260510043102 13 0 0.0 0.0 0.00 0.41 0.00 98 1011.2
20260510041555 13 0 0.0 0.0 0.00 0.41 0.00 97 1011.2
20260510040059 14 0 0.0 0.0 0.00 0.41 0.00 98 1011.2
20260510034555 14 0 0.0 0.0 0.00 0.41 0.41 98 1011.0
20260510033107 14 0 0.0 0.0 0.00 0.41 0.41 97 1010.9
20260510031554 14 0 0.0 0.0 0.00 0.41 0.41 97 1010.9
20260510030103 14 0 0.0 0.0 0.00 0.41 0.41 97 1010.8
20260510024557 14 0 0.0 0.0 0.00 0.41 0.41 97 1010.8
20260510023053 15 0 0.0 0.0 0.00 0.41 0.41 97 1010.8
20260510021552 15 0 0.0 0.0 0.00 0.41 0.41 97 1010.9
20260510020058 15 0 0.0 0.0 0.00 0.41 0.41 96 1010.9
20260510014559 15 0 0.0 0.0 0.00 0.41 0.41 96 1010.8
20260510013057 16 0 0.0 0.0 0.00 0.41 0.41 96 1010.7
20260510011554 16 0 0.0 0.0 0.00 0.41 0.41 95 1010.6
20260510010056 16 0 0.0 0.0 0.00 0.41 0.41 95 1010.3
20260510004559 16 0 0.0 0.0 0.00 0.41 0.41 94 1010.1
20260510003059 16 0 0.0 0.0 0.00 0.41 0.41 93 1010.0
20260510001552 17 0 0.0 0.0 0.00 0.41 0.41 93 1010.1
20260510000100 17 0 0.0 0.0 0.00 0.41 0.41 93 1010.1
20260509234552 17 0 0.0 0.0 0.00 0.41 0.41 92 1009.9
20260509233053 18 0 0.0 1.6 0.00 0.41 0.41 90 1009.9
20260509231552 18 129 0.0 4.8 0.00 0.41 0.41 88 1009.7
20260509230056 20 132 1.6 3.2 0.00 0.41 0.41 87 1009.4
20260509224552 20 141 1.6 3.2 0.00 0.41 0.41 87 1009.4
20260509223050 20 134 1.6 6.4 0.00 0.41 0.41 87 1009.3
20260509221549 20 143 1.6 6.4 0.00 0.41 0.41 87 1009.4
20260509220052 20 104 3.2 9.7 0.00 0.41 0.41 86 1009.6
20260509214610 20 181 1.6 12.9 0.00 0.41 0.41 85 1009.7
20260509213051 20 184 3.2 8.0 0.00 0.41 0.41 84 1009.6
20260509211550 20 86 3.2 9.7 0.00 0.41 0.41 84 1009.5
20260509204556 20 82 4.8 14.5 0.00 0.41 0.41 83 1009.8
20260509203107 21 149 4.8 22.5 0.00 0.41 0.41 83 1010.1
20260509201553 20 84 4.8 14.5 0.00 0.41 0.41 85 1010.1
20260509200055 20 0 1.6 16.1 0.00 0.41 0.41 87 1010.6
20260509194601 20 79 4.8 11.3 0.00 0.41 0.41 84 1010.6
20260509193106 19 183 4.8 14.5 0.00 0.41 0.41 86 1010.8
20260509191607 18 138 3.2 9.7 0.00 0.41 0.41 86 1010.9
20260509190057 18 121 1.6 9.7 0.00 0.41 0.41 89 1011.0
20260509184601 19 328 1.6 9.7 0.00 0.41 0.41 93 1011.1
20260509183057 18 83 3.2 8.0 0.00 0.41 0.41 94 1011.5
20260509181552 18 99 1.6 9.7 0.13 0.41 0.41 97 1011.6
20260509180049 17 67 1.6 4.8 0.15 0.41 0.41 98 1011.9
20260509174619 16 0 0.0 0.0 0.28 0.41 0.41 97 1012.0
20260509173056 16 0 0.0 0.0 0.30 0.41 0.41 96 1012.1
20260509171551 16 0 0.0 1.6 0.23 0.28 0.28 96 1012.2
20260509170051 16 0 0.0 6.4 0.25 0.25 0.25 96 1012.3
20260509164553 16 0 0.0 1.6 0.13 0.13 0.13 96 1012.2
20260509163055 16 150 0.0 4.8 0.10 0.10 0.10 94 1012.5
20260509161555 16 115 0.0 6.4 0.05 0.05 0.05 93 1012.8
20260509160057 17 103 3.2 11.3 0.00 0.00 0.00 89 1012.9
20260509154555 17 131 3.2 12.9 0.00 0.00 0.00 86 1013.2
20260509153100 18 167 3.2 8.0 0.00 0.00 0.00 85 1013.5
20260509151551 18 128 4.8 11.3 0.00 0.00 0.00 82 1013.7
20260509150052 18 152 3.2 9.7 0.00 0.00 0.00 82 1013.6
20260509144553 19 117 1.6 14.5 0.00 0.00 0.00 79 1013.7
20260509143055 20 73 3.2 17.7 0.00 0.00 0.00 80 1013.7
20260509141559 19 113 1.6 8.0 0.00 0.00 0.00 83 1013.8
20260509134554 18 141 3.2 8.0 0.00 0.00 0.00 85 1013.6